Location: Battersea Observatory
(44.4318°N, 76.3841°W)
Time: 23:04:38
(UTC-04:00)

Tiros 1 despin weight - Pass Details

Date: 25 January 2022
Orbit: 592 x 639 km, 48.2° (Epoch: 25 May)

Event Time Altitude Azimuth Distance (km) Brightness Sun altitude
Rises 16:07:54 0° 214° (SSW) 2,852 ? 7.9°
Reaches altitude 10° 16:10:22 10° 203° (SSW) 1,960 ? 7.6°
Maximum altitude 16:14:19 31° 142° (SE) 1,096 ? 7.0°
Drops below altitude 10° 16:18:21 10° 80° (E) 1,998 ? 6.4°
Sets 16:20:53 0° 71° (ENE) 2,917 ? 6.0°
